This is the latest recevied weather packets stored in our database for station/object SV9TNF-2. If no packets are shown the sender has not sent any weather packets the latest 10 day(s).
| Time | Temp. | Humidity | Pressure | Rain* | Wind** | Luminosity | Snow |
|---|---|---|---|---|---|---|---|
| 1778001907 | 18.33° C | 65% | 1022.7 hPa | 0 mm | 2.68 m/s, 90° | - | - |
| 1778001607 | 18.33° C | 64% | 1022.7 hPa | 0 mm | 1.79 m/s, 162° | - | - |
| 1778001307 | 18.33° C | 64% | 1022.7 hPa | 0 mm | 3.13 m/s, 141° | - | - |
| 1778001006 | 18.89° C | 64% | 1022.7 hPa | 0 mm | 2.68 m/s, 146° | - | - |
| 1778000706 | 19.44° C | 63% | 1022.7 hPa | 0 mm | 2.24 m/s, 160° | - | - |
| 1778000406 | 19.44° C | 63% | 1022.7 hPa | 0 mm | 2.68 m/s, 108° | - | - |
| 1778000106 | 19.44° C | 61% | 1022.7 hPa | 0 mm | 0 m/s | - | - |
| 1777999806 | 20° C | 62% | 1022.7 hPa | 0 mm | 0 m/s | - | - |
| 1777999506 | 20° C | 61% | 1022.7 hPa | 0 mm | 0 m/s | - | - |
| 1777999206 | 20° C | 62% | 1022.7 hPa | 0 mm | 1.34 m/s, 58° | - | - |
| 1777998907 | 20° C | 62% | 1022.7 hPa | 0 mm | 0.89 m/s, 79° | - | - |
| 1777998606 | 20° C | 62% | 1022.7 hPa | 0 mm | 1.34 m/s, 76° | - | - |
| 1777998306 | 20° C | 62% | 1022.7 hPa | 0 mm | 0.89 m/s, 77° | - | - |
| 1777998005 | 21.67° C | 58% | 1022.7 hPa | 0 mm | 0 m/s | - | - |
| 1777997706 | 21.11° C | 59% | 1022.7 hPa | 0 mm | 0 m/s | - | - |
| 1777997405 | 20.56° C | 61% | 1023 hPa | 0 mm | 0 m/s | - | - |
| 1777997105 | 20.56° C | 61% | 1023 hPa | 0 mm | 0.45 m/s, 83° | - | - |
| 1777996805 | 20.56° C | 60% | 1023 hPa | 0 mm | 0.45 m/s, 67° | - | - |
| 1777996505 | 21.67° C | 58% | 1023 hPa | 0 mm | 0 m/s | - | - |
| 1777996205 | 21.11° C | 59% | 1023 hPa | 0 mm | 1.34 m/s, 86° | - | - |
| 1777995905 | 21.67° C | 60% | 1023 hPa | 0 mm | 1.79 m/s, 42° | - | - |
| 1777995605 | 21.67° C | 58% | 1023 hPa | 0 mm | 0.89 m/s, 92° | - | - |
| 1777995305 | 21.67° C | 57% | 1023 hPa | 0 mm | 0.89 m/s, 115° | - | - |
| 1777995005 | 21.11° C | 59% | 1023 hPa | 0 mm | 1.34 m/s, 76° | - | - |
| 1777994704 | 21.67° C | 57% | 1023 hPa | 0 mm | 1.34 m/s, 74° | - | - |
* Rain latest hour (hover to see other rain measurements)
** Current wind speed in m/s (hover to see current wind gust speed)